Location: Tierra del Sol
(32.6128°N, 116.3319°W)
Time: 21:19:17
(UTC-07:00)

Vanguard 1 - Visible Passes

Search period start: 17 August 2018 00:00
Search period end: 27 August 2018 00:00
Orbit: 650 x 3833 km, 34.3° (Epoch: 17 August)

Date Brightness Start Highest point End Pass type
(mag) Time Alt. Az. Time Alt. Az. Time Alt. Az.
17 Aug 11.7 20:51:01 10° WNW 21:06:44 55° SW 21:12:19 26° SSE visible
17 Aug 12.9 23:23:11 10° WSW 23:25:01 11° WSW 23:25:01 11° WSW visible
18 Aug 11.8 21:13:01 10° WNW 21:27:22 43° SW 21:32:07 27° S visible
19 Aug 12.1 21:35:17 10° WNW 21:47:47 32° SW 21:51:56 24° S visible
20 Aug 12.2 19:27:40 10° WNW 19:47:31 69° SSW 19:58:22 10° SE visible
20 Aug 12.4 21:58:00 10° W 22:08:02 23° SW 22:11:48 19° SSW visible
21 Aug 12.3 19:49:38 10° WNW 20:08:27 58° SW 20:18:54 10° SE visible
21 Aug 12.8 22:21:47 10° W 22:28:10 15° SW 22:31:42 12° SW visible
22 Aug 12.5 20:11:42 10° WNW 20:29:08 47° SW 20:38:53 11° SSE visible
23 Aug 12.6 20:33:59 10° WNW 20:49:37 36° SW 20:58:50 11° SSE visible
24 Aug 12.8 20:56:43 10° W 21:09:55 27° SW 21:18:37 10° S visible
25 Aug 13.0 21:20:17 10° W 21:30:06 18° SW 21:37:18 10° SSW visible
26 Aug 12.9 19:10:09 10° WNW 19:30:12 49° SW 19:42:32 10° SSE visible
26 Aug 13.3 21:46:28 10° WSW 21:50:13 11° WSW 21:53:33 10° SW visible
